Flag for U.S.A. Weather past 2 weeks in Ann Arbor, Michigan, U.S.A.

Now
52 °F

Light rain. Mostly cloudy.


Feels Like: 50 °F
Forecast: 43 / 65 °F
Wind: 7 mph from Northwest

Location: Ann Arbor Municipal Airport

Current Time: May 22, 2015 at 4:52:59 AM

Latest Report: May 22, 2015 at 3:53 AM


Visibility: 10 mi

Pressure: 30.01 "Hg

Humidity: 72%

Dew point: 43 °F

Location of Ann ArborLocation

Historic Weather in Ann Arbor — Graph

°F

Ann Arbor temperature yesterday

Maximum temperature yesterday: 63 °F (at 2:53 PM)
Minimum temperature yesterday: 46 °F (at 5:53 AM)
Average temperature yesterday: 53 °F

Past Weeks' High & Low Weather Summary

 TemperatureHumidityPressure
High85 °F (May 8, 2:53 PM)100% (May 9, 2:03 AM)30.48 "Hg (May 9, 2:03 AM)
Low35 °F (May 14, 6:00 AM)30% (May 14, 1:53 PM)29.77 "Hg (May 11, 5:53 PM)
Average61 °F74%30.08 "Hg
* Reported May 7 3:01 AM — May 22 3:53 AM, Ann Arbor, Weather by CustomWeather, © 2015

Note: Actual official high and low records may vary slightly from our data, if they occured in-between our weather recording intervals... More about our weather records

Advertising

Ann Arbor weather history for previous 24 hours

 ConditionsComfort  
Time TempWeatherWind HumidityBarometerVisibility
3:53 AM
Fri, May 22
52 °FLight rain. Mostly cloudy.7 mph72%30.01 "Hg10 mi
2:53 AM56 °FLight rain. Mostly cloudy.12 mph51%30.00 "Hg10 mi
1:53 AM55 °FOvercast.9 mph53%29.99 "Hg10 mi
12:53 AM50 °FPassing clouds.6 mph66%30.00 "Hg10 mi
11:53 PM
Thu, May 21
47 °FPassing clouds.6 mph71%30.00 "Hg10 mi
10:53 PM47 °FClear.3 mph66%30.01 "Hg10 mi
9:53 PM48 °FSunny.6 mph63%29.99 "Hg10 mi
8:53 PM54 °FSunny.7 mph51%29.98 "Hg10 mi
7:53 PM61 °FSunny.14 mph36%29.96 "Hg10 mi
6:53 PM63 °FPassing clouds.13 mph38%29.96 "Hg10 mi
5:53 PM63 °FSunny.14 mph38%29.97 "Hg10 mi
4:53 PM62 °FPassing clouds.16 mph44%29.97 "Hg10 mi
3:53 PM62 °FPassing clouds.15 mph44%29.97 "Hg10 mi
2:53 PM63 °FSunny.7 mph43%29.97 "Hg10 mi
1:53 PM60 °FSunny.9 mph44%29.98 "Hg10 mi
12:53 PM58 °FPassing clouds.6 mph44%30.01 "Hg10 mi
11:53 AM55 °FOvercast.9 mph47%30.02 "Hg10 mi
10:53 AM54 °FOvercast.8 mph53%30.03 "Hg10 mi
9:53 AM53 °FOvercast.9 mph52%30.04 "Hg10 mi
8:53 AM51 °FOvercast.5 mph63%30.04 "Hg10 mi
7:53 AM48 °FOvercast.5 mph77%30.04 "Hg10 mi
6:53 AM47 °FMostly cloudy.5 mph90%30.03 "Hg10 mi
5:53 AM46 °FMostly cloudy.3 mph93%30.03 "Hg10 mi
4:53 AM47 °FOvercast.No wind93%30.05 "Hg8 mi
Weather by CustomWeather, © 2015

See weather overviewHow to use our weather pages